Weather History for San Jose, Costa Rica

Change the Weather History Date:

Wednesday, November 7, 2012

  Actual Average Record
Temperature  
Mean Temperature 74 °F -  
Max Temperature 82 °F 78 °F 84 °F (1996)
Min Temperature 65 °F 64 °F 62 °F (1998)
Cooling Degree Days 8    
Growing Degree Days 24 (Base 50)    
Moisture  
Dew Point 63 °F    
Average Humidity 73    
Maximum Humidity 94    
Minimum Humidity 43    
Precipitation  
Precipitation 0.04 in 0.15 in - ()
Sea Level Pressure  
Sea Level Pressure 29.96 in    
Wind  
Wind Speed 8 mph ()    
Max Wind Speed 14 mph    
Max Gust Speed 25 mph    
Visibility 7.1 miles    
Events Fog , Rain    
Averages and records for this station are not official NWS values.
T = Trace of Precipitation, MM = Missing Value Source: Averaged Metar Reports

Daily Weather History Graph

Daily Weather History Graph

Search for Another Location

Airport:

Trip Planner

Search our weather history database for the weather conditions in past years. The results will help you decide how hot, cold, wet, or windy it might be!

Date:

Astronomy

Nov. 07, 2012 Rise Set
Actual Time 5:28 AM CST 5:12 PM CST
Civil Twilight 5:07 AM CST 5:33 PM CST
Nautical Twilight 4:41 AM CST 5:59 PM CST
Astronomical Twilight 4:16 AM CST 6:24 PM CST
Moon No Moon Rise 12:12 PM CST (11/7)
Length of Visible Light 12h 26m
Length of Day
11h 43m
Last Quarter, 43% of the Moon is Illuminated
Nov 7
Last Quarter
Nov 13
New
Nov 20
First Quarter
Nov 28
Full
Dec 6
Last Quarter

Hourly Weather History & Observations

Time (CST) Temp. Heat Index Dew Point Humidity Pressure Visibility Wind Dir Wind Speed Gust Speed Precip Events Conditions
12:00 AM 67 °F - 64 °F 89% 29.89 in 12 mi ENE 8.1 mph - -  
12:00 AM 68.0 °F - 64.4 °F 88% 30.04 in 6.2 mi ENE 8.1 mph - N/A Rain Light Rain
1:00 AM 66.2 °F - 64.4 °F 94% 30.00 in 6.2 mi East 4.6 mph - N/A Rain Light Rain
2:00 AM 68.0 °F - 64.4 °F 88% 29.97 in 6.2 mi ENE 6.9 mph - N/A   Mostly Cloudy
3:00 AM 68.0 °F - 62.6 °F 83% 29.96 in 6.2 mi ENE 5.8 mph - N/A   Mostly Cloudy
4:00 AM 69.8 °F - 62.6 °F 78% 29.96 in 6.2 mi East 5.8 mph - N/A   Mostly Cloudy
5:00 AM 69.8 °F - 53.6 °F 56% 29.96 in 6.2 mi East 6.9 mph - N/A   Mostly Cloudy
6:00 AM 69.8 °F - 60.8 °F 73% 29.96 in 6.2 mi East 11.5 mph - N/A   Mostly Cloudy
7:00 AM 73.4 °F - 62.6 °F 69% 29.98 in 6.2 mi East 13.8 mph 25.3 mph N/A   Mostly Cloudy
8:00 AM 73.4 °F - 62.6 °F 69% 30.00 in 6.2 mi East 11.5 mph 23.0 mph N/A   Scattered Clouds
9:00 AM 77 °F - 60 °F 47% 29.83 in 12 mi East 12.7 mph - -   Scattered Clouds
9:00 AM 77.0 °F - 60.8 °F 57% 30.01 in 6.2 mi East 12.7 mph 24.2 mph N/A   Scattered Clouds
10:00 AM 80.6 °F 81.5 °F 60.8 °F 51% 30.01 in 6.2 mi East 11.5 mph 23.0 mph N/A   Scattered Clouds
11:00 AM 78.8 °F - 60.8 °F 54% 30.00 in 6.2 mi East 11.5 mph - N/A   Scattered Clouds
12:00 PM 80 °F - 61 °F 43% 29.80 in 12 mi East 10.4 mph - -   Partly Cloudy
12:00 PM 80.6 °F 81.5 °F 60.8 °F 51% 29.96 in 6.2 mi East 10.4 mph - N/A   Scattered Clouds
1:00 PM 80.6 °F 81.5 °F 60.8 °F 51% 29.93 in 6.2 mi East 10.4 mph - N/A   Scattered Clouds
2:00 PM 78.8 °F - 64.4 °F 61% 29.93 in 6.2 mi East 12.7 mph - N/A   Scattered Clouds
2:15 PM 73.4 °F - 68.0 °F 83% 29.93 in 6.2 mi SW 9.2 mph - N/A Rain Light Rain
3:00 PM 73.4 °F - 69.8 °F 88% 29.93 in 6.2 mi West 8.1 mph - N/A Fog Mostly Cloudy
4:00 PM 71.6 °F - 68.0 °F 88% 29.95 in 6.2 mi SSW 4.6 mph - N/A Fog Mostly Cloudy
5:00 PM 69.8 °F - 66.2 °F 88% 29.96 in 6.2 mi West 6.9 mph - N/A Fog Mostly Cloudy
6:00 PM 69 °F - 67 °F 90% 29.85 in 9 mi West 5.8 mph - - Fog Light Fog
6:00 PM 69.8 °F - 66.2 °F 88% 29.98 in 6.2 mi West 5.8 mph - N/A Fog Mostly Cloudy
7:00 PM 68.0 °F - 66.2 °F 94% 30.01 in 6.2 mi Calm Calm - N/A   Mostly Cloudy
8:00 PM 69.8 °F - 62.6 °F 78% 30.04 in 6.2 mi East 6.9 mph - N/A   Mostly Cloudy
9:00 PM 70 °F - 62 °F 69% 29.86 in 12 mi East 8.1 mph - -   Scattered Clouds
9:00 PM 69.8 °F - 62.6 °F 78% 30.04 in 6.2 mi East 8.1 mph - N/A   Mostly Cloudy
10:00 PM 69.8 °F - 62.6 °F 78% 30.02 in 6.2 mi East 9.2 mph - N/A   Mostly Cloudy
11:00 PM 71.6 °F - 60.8 °F 69% 30.00 in 6.2 mi East 12.7 mph - N/A   Mostly Cloudy